CW3403 Weather Reports


time (UTC)temp
F
wind
direction
speed
knots
gust
knots
rain 1hr
in
rain 24hr
in
rain mn
in
humidity
%
barometer
mb
20260502194818 49 292 6.1 6.1 0.00 0.01 0.01 51 1017.6
20260502194315 49 221 2.6 2.6 0.00 0.01 0.01 52 1017.7
20260502193810 49 336 1.7 1.7 0.00 0.01 0.01 50 1017.7
20260502193308 49 320 1.7 1.7 0.00 0.01 0.01 50 1017.8
20260502192803 49 310 4.3 5.2 0.00 0.01 0.01 50 1017.9
20260502192304 50 1 1.7 1.7 0.00 0.01 0.01 51 1017.7
20260502191758 51 353 2.6 4.3 0.00 0.01 0.01 50 1017.6
20260502191255 49 306 5.2 7.0 0.00 0.01 0.01 50 1017.7
20260502190753 50 259 1.7 1.7 0.00 0.01 0.01 48 1017.6
20260502190250 50 304 3.5 4.3 0.00 0.01 0.01 49 1018.0
20260502185750 48 337 2.6 2.6 0.00 0.01 0.01 51 1017.8
20260502185247 48 322 3.5 4.3 0.00 0.01 0.01 50 1017.9
20260502184743 47 304 0.9 1.7 0.00 0.01 0.01 52 1018.1
20260502184239 48 315 5.2 7.0 0.00 0.01 0.01 52 1018.1
20260502183736 48 310 1.7 1.7 0.00 0.01 0.01 54 1017.9
20260502183232 49 42 2.6 2.6 0.00 0.01 0.01 50 1018.0
20260502182727 50 285 1.7 1.7 0.00 0.01 0.01 47 1017.9
20260502182223 50 314 3.5 4.3 0.00 0.01 0.01 47 1017.9
20260502181720 50 358 2.6 2.6 0.00 0.01 0.01 44 1018.1
20260502181219 48 312 1.7 2.6 0.00 0.01 0.01 48 1018.3
20260502180716 49 11 1.7 2.6 0.00 0.01 0.01 49 1018.0
20260502180214 49 271 0.9 0.9 0.00 0.01 0.01 51 1018.1
20260502170137 50 305 4.3 5.2 0.00 0.01 0.01 49 1018.4
20260502164124 47 314 4.3 6.1 0.00 0.01 0.01 53 1018.4
20260502163620 48 355 5.2 7.0 0.00 0.01 0.01 51 1018.4
20260502163117 49 160 0.9 1.7 0.00 0.01 0.01 49 1018.5
20260502162614 49 312 4.3 5.2 0.00 0.01 0.01 50 1018.6
20260502162111 49 285 2.6 5.2 0.00 0.01 0.01 50 1018.6
20260502161608 48 236 2.6 2.6 0.00 0.01 0.01 47 1018.5
20260502161105 47 308 1.7 2.6 0.00 0.01 0.01 50 1018.6
20260502160603 49 342 2.6 5.2 0.00 0.01 0.01 52 1018.6
20260502152016 48 6 3.5 5.2 0.00 0.01 0.01 54 1018.4
20260502151512 47 327 3.5 5.2 0.00 0.01 0.01 52 1018.3
20260502151010 46 320 2.6 2.6 0.00 0.01 0.01 58 1018.2
20260502150508 47 311 5.2 7.0 0.00 0.01 0.01 57 1018.6
20260502130352 43 227 0.0 0.0 0.00 0.01 0.01 71 1018.3
20260502123335 40 328 0.9 1.7 0.00 0.01 0.01 78 1018.1
20260502122832 40 310 0.9 0.9 0.00 0.01 0.01 79 1018.0
20260502122327 40 302 0.0 0.9 0.00 0.01 0.01 80 1018.0
20260502121827 39 291 0.9 0.9 0.00 0.01 0.01 81 1018.0
20260502121323 39 289 2.6 4.3 0.00 0.01 0.01 86 1018.3
20260502120820 38 301 0.0 0.0 0.00 0.01 0.01 96 1018.3
20260502120316 39 311 0.9 0.9 0.00 0.01 0.01 99 1018.1
20260502115814 38 261 0.0 0.0 0.00 0.01 0.01 99 1018.1
20260502115311 37 278 0.0 0.0 0.00 0.01 0.01 99 1018.1
20260502114808 37 299 0.0 0.0 0.00 0.01 0.01 99 1018.1
20260502114304 36 286 0.0 0.0 0.00 0.01 0.01 99 1017.7
20260502113801 36 287 0.0 0.0 0.00 0.01 0.01 99 1018.0
20260502113259 36 278 1.7 1.7 0.00 0.01 0.01 99 1018.2
20260502112757 35 279 0.0 0.0 0.00 0.01 0.01 99 1018.0
20260502112254 35 296 0.0 0.0 0.00 0.01 0.01 99 1018.0
20260502111751 36 279 0.0 0.0 0.00 0.01 0.01 99 1018.1
20260502111249 35 279 0.0 0.0 0.00 0.01 0.01 99 1018.1
20260502110746 34 278 0.0 0.0 0.00 0.01 0.01 99 1018.3
20260502110244 32 278 0.0 0.0 0.00 0.01 0.01 99 1018.2
20260502105742 32 278 0.0 0.0 0.00 0.01 0.01 99 1017.9
20260502105237 32 278 0.0 0.0 0.00 0.01 0.01 99 1018.1
20260502104736 31 278 0.0 0.0 0.00 0.01 0.01 99 1017.9
20260502104233 32 278 0.0 0.0 0.00 0.01 0.01 99 1017.8
20260502103731 32 278 0.0 0.0 0.00 0.01 0.01 99 1017.9
20260502103228 32 278 0.0 0.0 0.00 0.01 0.01 99 1018.0
20260502102725 32 278 0.0 0.0 0.00 0.01 0.01 99 1017.8
20260502102221 32 278 0.0 0.0 0.00 0.01 0.01 99 1017.9
20260502101719 32 278 0.0 0.0 0.00 0.01 0.01 99 1017.6
20260502101217 32 278 0.0 0.0 0.00 0.01 0.01 99 1017.9
20260502100715 32 278 0.0 0.0 0.00 0.01 0.01 99 1017.7
20260502100213 33 278 0.0 0.0 0.00 0.01 0.01 99 1017.7
20260502091147 33 279 0.0 0.0 0.00 0.01 0.01 99 1017.9
20260502090644 34 279 0.0 0.0 0.00 0.01 0.01 99 1018.0
20260502090142 34 279 0.0 0.0 0.00 0.01 0.01 99 1018.0
20260502080110 35 271 0.0 0.0 0.00 0.01 0.01 99 1017.7
20260502071043 34 272 0.0 0.0 0.00 0.01 0.01 99 1017.4
20260502070541 34 272 0.0 0.0 0.00 0.01 0.01 99 1017.6
20260502070039 34 272 0.0 0.0 0.00 0.01 0.01 99 1017.6
20260502065537 34 271 0.0 0.0 0.00 0.01 0.01 99 1017.4
20260502065034 35 272 0.0 0.0 0.00 0.01 0.01 99 1017.7
20260502064533 35 272 0.0 0.0 0.00 0.01 0.01 99 1017.8
20260502064029 35 272 0.0 0.0 0.00 0.01 0.01 99 1017.8
20260502063527 35 272 0.0 0.0 0.00 0.01 0.01 99 1017.7
20260502063025 35 272 0.0 0.0 0.00 0.01 0.01 99 1017.9
20260502062522 35 272 0.0 0.0 0.00 0.01 0.01 99 1017.8
20260502062020 35 271 0.0 0.0 0.00 0.01 0.01 99 1017.9
20260502061518 35 272 0.0 0.0 0.00 0.01 0.01 99 1018.1
20260502061015 35 272 0.0 0.0 0.00 0.01 0.01 99 1017.9
20260502060509 35 272 0.0 0.0 0.00 0.01 0.01 99 1017.8
20260502060007 35 272 0.0 0.0 0.00 0.01 0.01 99 1018.2
20260502055504 35 272 0.0 0.0 0.00 0.01 0.01 99 1018.2
20260502055003 35 271 0.0 0.0 0.00 0.01 0.01 99 1018.2
20260502054500 35 272 0.0 0.0 0.00 0.01 0.01 99 1018.1
20260502053958 35 272 0.0 0.0 0.00 0.01 0.01 99 1018.2
20260502053455 35 272 0.0 0.0 0.00 0.01 0.01 99 1018.1
20260502052953 35 272 0.0 0.0 0.00 0.01 0.01 99 1018.2
20260502052451 36 272 0.0 0.0 0.00 0.01 0.01 99 1018.2
20260502051949 36 272 0.0 0.0 0.00 0.01 0.01 99 1018.3
20260502051446 36 272 0.0 0.0 0.00 0.01 0.01 99 1017.9
20260502050943 36 274 0.0 0.0 0.00 0.01 0.01 99 1018.0
20260502050440 37 275 0.0 0.0 0.00 0.01 0.01 99 1018.3
20260502045937 37 275 0.0 0.0 0.00 0.01 0.01 99 1017.8
20260502045434 37 275 0.0 0.0 0.00 0.01 0.01 99 1018.2
20260502044931 37 274 0.0 0.0 0.05 0.01 0.01 99 1018.1
20260502044426 37 274 0.0 0.0 0.05 0.01 0.01 99 1018.1
20260502043924 37 274 0.0 0.0 0.00 0.00 0.00 99 1018.0
20260502043422 37 274 0.0 0.0 0.00 0.00 0.00 99 1018.3
20260502042921 38 274 0.0 0.0 0.00 0.00 0.00 99 1018.2
20260502042418 38 274 0.0 0.0 0.00 0.00 0.00 99 1018.3
20260502041915 38 271 0.0 0.0 0.00 0.00 0.00 99 1018.5
20260502041413 38 273 0.0 0.0 0.00 0.00 0.00 99 1018.3
20260502040910 39 273 0.0 0.0 0.00 0.00 0.00 99 1018.5
20260502040406 39 273 0.0 0.0 0.00 0.00 0.00 98 1018.3
20260502035903 39 273 0.0 0.0 0.00 0.09 0.09 98 1018.2
20260502035359 39 269 0.0 0.0 0.00 0.09 0.09 98 1018.4
20260502034856 40 253 0.0 0.0 0.00 0.09 0.09 98 1018.4
20260502034355 39 273 0.0 0.0 0.00 0.09 0.09 98 1018.3
20260502033853 40 259 0.0 0.0 0.00 0.09 0.09 97 1018.3
20260502033350 40 254 0.0 0.0 0.00 0.09 0.09 97 1018.1
20260502032847 40 252 0.0 0.0 0.00 0.09 0.09 97 1018.3
20260502032343 40 262 0.0 0.0 0.00 0.09 0.09 96 1018.5
20260502031841 41 319 0.0 0.0 0.00 0.09 0.09 95 1018.2
20260502031339 41 319 0.0 0.0 0.00 0.09 0.09 95 1018.4
20260502030837 41 319 0.0 0.0 0.00 0.09 0.09 94 1018.2
20260502030335 42 320 0.0 0.0 0.00 0.09 0.09 94 1018.3
20260502025832 42 44 0.0 0.0 0.00 0.09 0.09 93 1018.4
20260502025330 42 44 0.0 0.0 0.00 0.09 0.09 92 1018.2
20260502024827 42 147 0.9 0.9 0.00 0.09 0.09 92 1018.0
20260502024325 43 296 0.9 0.9 0.07 0.09 0.09 92 1018.4
20260502023823 43 295 1.7 1.7 0.07 0.09 0.09 92 1018.5
20260502023320 43 281 0.0 0.0 0.00 0.08 0.08 92 1018.4
20260502022818 43 271 0.0 0.0 0.00 0.08 0.08 90 1018.2
20260502022314 44 280 0.0 0.0 0.07 0.08 0.08 89 1018.3
20260502021811 44 303 0.0 0.0 0.00 0.07 0.07 87 1017.8
20260502021308 44 310 0.0 0.0 0.00 0.07 0.07 86 1017.6
20260502020805 44 307 0.0 0.0 0.00 0.07 0.07 86 1017.8
20260502020303 44 327 0.0 0.0 0.00 0.07 0.07 85 1017.6
20260502015800 43 328 0.0 0.0 0.00 0.07 0.07 85 1017.5
20260502015256 43 309 0.0 0.9 0.00 0.07 0.07 87 1017.6
20260502014754 43 311 0.0 0.0 0.00 0.07 0.07 89 1017.7
20260502014250 42 299 0.9 0.9 0.00 0.07 0.07 93 1017.6
20260502013747 41 303 0.0 0.0 0.00 0.07 0.07 94 1017.6
20260502013242 41 287 0.0 0.0 0.00 0.07 0.07 94 1017.3
20260502012740 41 287 0.0 0.0 0.00 0.07 0.07 93 1017.3
20260502012237 41 287 0.0 0.0 0.00 0.07 0.07 92 1017.1
20260502011735 41 287 0.0 0.0 0.00 0.07 0.07 92 1016.8
20260502011230 41 287 0.0 0.0 0.00 0.07 0.07 91 1016.9
20260502010728 41 287 0.0 0.0 0.00 0.07 0.07 89 1016.9
20260502010224 42 287 0.0 0.0 0.00 0.07 0.07 88 1016.7
20260502005721 42 287 0.0 0.0 0.00 0.07 0.07 88 1016.6
20260502005219 43 287 0.0 0.0 0.00 0.07 0.07 87 1016.6
20260502004715 43 297 0.0 0.0 0.00 0.07 0.07 86 1016.3
20260502004212 43 297 0.0 0.0 0.00 0.07 0.07 85 1016.4
20260502003710 43 297 0.0 0.0 0.00 0.07 0.07 85 1016.5
20260502003207 44 297 0.0 0.0 0.00 0.07 0.07 83 1016.5
20260502002702 44 297 0.0 0.0 0.00 0.07 0.07 81 1016.8
20260502002201 44 296 0.0 0.0 0.00 0.07 0.07 81 1016.8
20260502001657 45 296 0.9 0.9 0.00 0.07 0.07 82 1017.0
20260502001155 45 284 0.0 0.0 0.00 0.07 0.07 81 1016.9
20260502000653 45 298 0.0 0.0 0.00 0.07 0.07 78 1017.0
20260502000150 45 333 0.9 0.9 0.00 0.07 0.07 78 1016.4
20260501235646 46 298 1.7 1.7 0.00 0.07 0.07 78 1016.3
20260501235142 46 309 0.0 0.0 0.00 0.07 0.07 77 1016.2
20260501234637 46 319 0.9 0.9 0.00 0.07 0.07 77 1016.2
20260501234135 46 339 1.7 2.6 0.00 0.07 0.07 76 1016.3
20260501233633 46 334 2.6 5.2 0.00 0.07 0.07 75 1015.9
20260501233130 46 338 2.6 2.6 0.00 0.07 0.07 75 1016.0
20260501232626 47 332 1.7 2.6 0.00 0.07 0.07 75 1016.0
20260501232124 47 345 2.6 2.6 0.00 0.07 0.07 74 1015.9
20260501231621 47 343 2.6 4.3 0.00 0.07 0.07 74 1015.7
20260501231119 47 323 2.6 2.6 0.00 0.07 0.07 75 1016.1
20260501230617 47 2 4.3 6.1 0.00 0.07 0.07 75 1015.9
20260501230115 47 323 1.7 1.7 0.00 0.07 0.07 76 1016.0
20260501225613 47 303 3.5 5.2 0.00 0.07 0.07 78 1015.8
20260501225108 46 349 2.6 2.6 0.00 0.07 0.07 78 1016.1
20260501224606 46 314 2.6 2.6 0.00 0.07 0.07 79 1016.0
20260501224103 46 319 2.6 2.6 0.00 0.07 0.07 79 1016.0
20260501223600 47 359 4.3 7.0 0.00 0.07 0.07 78 1015.9
20260501223055 47 1 1.7 2.6 0.00 0.07 0.07 76 1015.8
20260501222552 48 336 3.5 5.2 0.00 0.07 0.07 73 1015.9
20260501222049 48 0 5.2 7.0 0.00 0.07 0.07 72 1015.9
20260501221546 49 343 5.2 6.1 0.00 0.07 0.07 71 1015.7
20260501221043 48 286 3.5 4.3 0.00 0.07 0.07 72 1015.5
20260501220541 48 314 3.5 4.3 0.00 0.07 0.07 72 1015.7
20260501220037 48 338 4.3 6.1 0.00 0.07 0.07 72 1015.7
20260501215533 48 327 2.6 2.6 0.00 0.07 0.07 74 1015.7
20260501215029 48 300 6.1 7.8 0.00 0.07 0.07 74 1015.7
20260501214525 48 331 5.2 7.0 0.00 0.07 0.07 73 1015.8
20260501214020 48 293 4.3 5.2 0.00 0.07 0.07 72 1015.9
20260501213518 49 343 3.5 6.1 0.00 0.07 0.07 72 1015.7
20260501213014 49 312 4.3 5.2 0.00 0.07 0.07 71 1015.2
20260501212510 49 355 7.8 12.2 0.00 0.07 0.07 69 1015.2
20260501212008 49 76 1.7 4.3 0.00 0.07 0.07 70 1015.5
20260501211504 49 319 4.3 5.2 0.00 0.07 0.07 70 1015.1
20260501211002 49 276 5.2 7.0 0.00 0.07 0.07 72 1014.7
20260501210458 49 5 4.3 5.2 0.00 0.07 0.07 71 1014.8
20260501205955 50 313 0.9 1.7 0.00 0.07 0.07 72 1014.6
20260501205451 50 342 0.9 1.7 0.00 0.07 0.07 71 1014.7
20260501204949 50 301 3.5 4.3 0.00 0.07 0.07 70 1014.7
20260501204444 50 337 4.3 5.2 0.00 0.07 0.07 70 1014.5
20260501203941 50 314 6.1 7.0 0.00 0.07 0.07 73 1014.3
20260501203438 50 311 2.6 2.6 0.00 0.07 0.07 75 1014.2
20260501202935 49 212 2.6 2.6 0.00 0.07 0.07 76 1014.2
20260501202432 50 333 5.2 6.1 0.00 0.07 0.07 74 1014.0
20260501201929 51 336 4.3 6.1 0.00 0.07 0.07 73 1014.2
20260501201426 52 310 6.1 8.7 0.00 0.07 0.07 72 1014.1
20260501200923 51 301 7.0 7.8 0.00 0.07 0.07 72 1013.9
20260501200420 52 302 3.5 4.3 0.00 0.07 0.07 72 1014.0
20260501195917 53 317 3.5 4.3 0.00 0.07 0.07 70 1014.0
20260501195414 52 317 6.1 7.8 0.00 0.07 0.07 70 1014.0